[[{"header":{"parameterUnit":"m.s-1","parameterCategory":1,"la1":30.2991,"la2":30.254,"lo1":-89.0895,"lo2":-89.0444,"dy":0.0017,"dx":0.0017,"nx":28,"ny":28,"refTime":"2024-04-05T21:00:00:Z","depth":0,"parameterNumber":2,"parameterNumberName":"U-component_of_WINDS"},"data":[0,0,0,0,0,0,0,0,0,0,0,0,0,0,0,0,0,0,0,0,0,0,0,0,0,0,0,0,0,0,0,0,0,0,0,0,0,0,0,0,0,0,0,0,0,0,0,0,0,0,0,0,0,0,0,0,0,0,-3.6534,-3.6535,0,-3.6652,-3.6653,-3.6654,-3.6674,-3.6673,-3.6672,-3.6671,-3.679,-3.6794,-3.6798,0,0,0,0,0,0,0,0,0,0,0,0,0,-3.6326,-3.6329,-3.6534,-3.6535,-3.6537,-3.6651,-3.6653,-3.6655,-3.6674,-3.6672,-3.6671,-3.667,-3.6789,-3.6794,-3.6799,0,0,0,0,0,0,0,0,0,0,0,0,0,-3.6427,-3.6331,-3.6533,-3.656,-3.6564,-3.6651,-3.6653,-3.6655,-3.6674,-3.6672,-3.6671,-3.667,-3.6787,-3.6793,-3.68,-3.6868,0,0,-3.6819,-3.6821,0,0,0,0,0,0,0,0,-3.6421,-3.6435,-3.6555,-3.6558,-3.6563,-3.6646,-3.6624,-3.6727,-3.6674,-3.6632,-3.6671,-3.6669,-3.6744,-3.6753,-3.6779,-3.6874,-3.6879,-3.6819,-3.6823,-3.6825,-3.6827,0,0,0,0,0,0,0,-3.6414,-3.643,-3.658,-3.6556,-3.6561,-3.6566,-3.6579,-3.6643,-3.6695,-3.6636,-3.6637,-3.6651,-3.6745,-3.6773,-3.6782,-3.6881,-3.6819,-3.6824,-3.6828,-3.6831,-3.704,-3.7042,0,0,0,0,0,0,-3.6402,-3.6424,-3.6577,-3.6584,-3.6487,-3.6571,-3.6585,-3.6621,-3.6694,-3.6704,-3.6652,-3.6651,-3.6763,-3.6774,-3.6786,-3.6872,-3.6825,-3.6831,-3.6835,-3.7038,-3.704,-3.7042,0,0,0,0,0,0,-3.6398,-3.6416,-3.6572,-3.6504,-3.6525,-3.6576,-3.6616,-3.6624,-3.6651,-3.6707,-3.6716,-3.667,-3.6762,-3.6777,-3.6848,-3.6876,-3.6834,-3.684,-3.7036,-3.7039,-3.7041,-3.7043,0,0,0,0,0,0,-3.6392,-3.6414,-3.644,-3.6505,-3.6528,-3.6632,-3.6618,-3.6627,-3.6662,-3.6662,-3.6726,-3.6736,-3.6762,-3.6839,-3.6854,-3.6884,-3.6845,-3.7034,-3.7037,-3.7041,-3.7041,-3.7046,-3.705,0,0,0,0,0,-3.6384,-3.6436,-3.6442,-3.646,-3.6562,-3.6633,-3.6647,-3.6676,-3.6664,-3.6691,-3.6727,-3.6734,-3.6871,-3.6846,-3.6863,-3.6895,-3.7032,-3.7036,-3.704,-3.7039,-3.7045,-3.705,0,0,0,0,0,0,-3.6373,-3.6445,-3.6452,-3.6526,-3.6573,-3.6636,-3.6671,-3.6681,-3.6733,-3.6731,-3.6765,-3.678,-3.6849,-3.688,-3.685,-3.6967,-3.6951,-3.6958,-3.6943,-3.695,-3.6954,-3.6944,-3.685,0,0,0,0,0,-3.6379,-3.6431,-3.6491,-3.655,-3.6574,-3.6619,-3.6651,-3.667,-3.672,-3.674,-3.6781,-3.683,-3.6884,-3.6919,-3.6972,-3.7046,-3.7061,-3.7077,-3.7082,-3.7085,-3.7091,-3.7133,-3.7141,-3.7056,-3.7056,-3.7056,0,0,-3.6392,-3.6438,-3.6468,-3.6549,-3.6588,-3.6641,-3.6635,-3.6691,-3.6731,-3.6748,-3.6818,-3.685,-3.6907,-3.698,-3.7014,-3.7007,-3.7118,-3.709,-3.7093,-3.7097,-3.7138,-3.7146,-3.7153,-3.7059,-3.7058,-3.7058,0,0,-3.6442,-3.6482,-3.6536,-3.6576,-3.6636,-3.6665,-3.6678,-3.6741,-3.6763,-3.6833,-3.6848,-3.6896,-3.6988,-3.7028,-3.7061,-3.7129,-3.7136,-3.7145,-3.7168,-3.7209,-3.7215,-3.7221,-3.7245,-3.7253,-3.7151,-3.7151,-3.7151,0,-3.645,-3.6531,-3.6563,-3.6619,-3.6654,-3.6674,-3.6729,-3.6766,-3.684,-3.6864,-3.6856,-3.6973,-3.7013,-3.7096,-3.7112,-3.7138,-3.7154,-3.7137,-3.7212,-3.7218,-3.7224,-3.7248,-3.7257,-3.7152,-3.7152,-3.7152,-3.7152,0,-3.6538,-3.6593,-3.663,-3.6701,-3.6741,-3.6796,-3.6837,-3.6874,-3.689,-3.6921,-3.6993,-3.7042,-3.7105,-3.7127,-3.7143,-3.7212,-3.7206,-3.7205,-3.7189,-3.7233,-3.7255,-3.7264,-3.7153,-3.7153,-3.7152,-3.7152,0,0,-3.6582,-3.6672,-3.6684,-3.6717,-3.6785,-3.6829,-3.6886,-3.6949,-3.6979,-3.703,-3.7078,-3.7158,-3.7157,-3.7194,-3.7215,-3.7251,-3.7302,-3.7246,-3.7247,-3.7253,-3.7381,-3.7381,-3.7391,-3.7308,-3.731,-3.7312,-3.7376,0,-3.6639,-3.6741,-3.6772,-3.6857,-3.6909,-3.693,-3.6979,-3.7027,-3.7058,-3.7106,-3.7141,-3.7196,-3.7191,-3.7214,-3.7251,-3.7288,-3.7328,-3.7284,-3.7353,-3.7355,-3.7336,-3.7402,-3.7402,-3.7461,-3.7385,-3.7387,-3.7388,0,-3.6719,-3.6772,-3.6862,-3.6925,-3.6948,-3.6992,-3.7052,-3.7099,-3.7153,-3.7174,-3.7216,-3.7235,-3.7295,-3.7278,-3.7362,-3.7331,-3.7362,-3.7385,-3.7388,-3.7394,-3.7373,-3.7409,-3.748,-3.7488,-3.7402,-3.7401,-3.74,0,-3.6741,-3.6835,-3.6901,-3.6929,-3.7004,-3.7034,-3.7067,-3.712,-3.7157,-3.721,-3.7234,-3.7293,-3.7326,-3.7372,-3.7406,-3.739,-3.7487,-3.7473,-3.7505,-3.7504,-3.7523,-3.7521,-3.7598,-3.7545,-3.7545,-3.7545,-3.7545,0,-3.6802,-3.6856,-3.6912,-3.6953,-3.7014,-3.7051,-3.7111,-3.7145,-3.7193,-3.724,-3.7263,-3.7307,-3.7351,-3.7401,-3.7429,-3.7494,-3.7509,-3.7527,-3.7533,-3.7524,-3.7521,-3.7543,-3.7539,-3.7547,-3.7547,-3.7546,-3.7546,0,-3.6836,-3.6876,-3.6949,-3.7015,-3.7033,-3.7075,-3.7131,-3.7172,-3.7205,-3.7265,-3.7281,-3.7332,-3.7393,-3.7433,-3.751,-3.7529,-3.76,-3.7606,-3.7581,-3.7584,-3.7614,-3.761,-3.7707,-3.7721,-3.7659,-3.766,-3.766,0,-3.6871,-3.6913,-3.6983,-3.7017,-3.705,-3.7104,-3.7141,-3.718,-3.7217,-3.7284,-3.7316,-3.7379,-3.743,-3.7526,-3.7571,-3.763,-3.7637,-3.7667,-3.7646,-3.7636,-3.7637,-3.7633,-3.7637,-3.7669,-3.767,-3.767,-3.7671,0,-3.6928,-3.6947,-3.6999,-3.706,-3.7104,-3.7153,-3.7202,-3.7229,-3.7276,-3.7317,-3.738,-3.742,-3.7499,-3.7561,-3.7625,-3.7659,-3.7673,-3.7677,-3.7688,-3.7678,-3.7662,-3.767,-3.7589,-3.7674,-3.7674,-3.7674,-3.7674,-3.7673,-3.6964,-3.7002,-3.7058,-3.7116,-3.7158,-3.7204,-3.7245,-3.7284,-3.7336,-3.7404,-3.7424,-3.7489,-3.7544,-3.7632,-3.7667,-3.7719,-3.7715,-3.7731,-3.7735,-3.7737,-3.7737,-3.7655,-3.7731,-3.7731,-3.7731,-3.7731,-3.7731,0,-3.7022,-3.7059,-3.7113,-3.7181,-3.7227,-3.7238,-3.7293,-3.7331,-3.7388,-3.7438,-3.7489,-3.7561,-3.7622,-3.7671,-3.7734,-3.7766,-3.7774,-3.7781,-3.7778,-3.7786,-3.7737,-3.7721,-3.7773,-3.7773,-3.7773,-3.7773,-3.7773,-3.7773,-3.7057,-3.7123,-3.7148,-3.7235,-3.7273,-3.7337,-3.7368,-3.741,-3.7451,-3.753,-3.7581,-3.7613,-3.7664,-3.773,-3.7786,-3.7799,-3.7821,-3.7826,-3.7841,-3.7794,-3.7789,-3.7784,-3.777,-3.7831,-3.7831,-3.7885,-3.7886,-3.7886]},{"header":{"parameterUnit":"m.s-1","parameterCategory":1,"la1":30.2991,"la2":30.254,"lo1":-89.0895,"lo2":-89.0444,"dy":0.0017,"dx":0.0017,"nx":28,"ny":28,"refTime":"2024-04-05T21:00:00:Z","depth":0,"parameterNumber":3,"parameterNumberName":"V-component_of_WINDS"},"data":[0,0,0,0,0,0,0,0,0,0,0,0,0,0,0,0,0,0,0,0,0,0,0,0,0,0,0,0,0,0,0,0,0,0,0,0,0,0,0,0,0,0,0,0,0,0,0,0,0,0,0,0,0,0,0,0,0,0,5.0265,5.0265,0,5.0287,5.0287,5.0288,5.0283,5.0282,5.0282,5.0281,5.0303,5.0304,5.0305,0,0,0,0,0,0,0,0,0,0,0,0,0,5.0218,5.0218,5.0265,5.0265,5.0265,5.0287,5.0287,5.0288,5.0283,5.0282,5.0282,5.0281,5.0303,5.0304,5.0305,0,0,0,0,0,0,0,0,0,0,0,0,0,5.0239,5.0219,5.0265,5.0265,5.0266,5.0287,5.0287,5.0288,5.0283,5.0282,5.0282,5.0281,5.0303,5.0304,5.0305,5.0327,0,0,5.031,5.031,0,0,0,0,0,0,0,0,5.0238,5.0241,5.0265,5.0265,5.0266,5.0282,5.0279,5.0301,5.0283,5.0276,5.0281,5.0281,5.0296,5.0298,5.0304,5.0328,5.0329,5.031,5.0311,5.0311,5.0312,0,0,0,0,0,0,0,5.0236,5.024,5.0273,5.0265,5.0266,5.0265,5.0267,5.0283,5.029,5.0277,5.0277,5.0279,5.0296,5.0303,5.0304,5.0329,5.031,5.0311,5.0312,5.0313,5.0374,5.0375,0,0,0,0,0,0,5.0234,5.0238,5.0273,5.0274,5.025,5.0266,5.0269,5.0277,5.0289,5.0291,5.028,5.0279,5.03,5.0303,5.0305,5.0332,5.0311,5.0313,5.0314,5.0373,5.0374,5.0375,0,0,0,0,0,0,5.0233,5.0238,5.0272,5.0256,5.0261,5.0268,5.0277,5.0278,5.0284,5.0292,5.0293,5.0285,5.03,5.0303,5.0322,5.0333,5.0313,5.0315,5.0372,5.0373,5.0374,5.0386,0,0,0,0,0,0,5.0232,5.0237,5.0245,5.0256,5.0261,5.0288,5.0278,5.0279,5.0286,5.0286,5.0297,5.0298,5.03,5.032,5.0323,5.0334,5.0316,5.0371,5.0373,5.0374,5.0384,5.0387,5.0389,0,0,0,0,0,5.023,5.0247,5.0246,5.025,5.0272,5.0289,5.0292,5.0294,5.0287,5.0296,5.0301,5.0297,5.0331,5.0322,5.0326,5.0337,5.0371,5.0372,5.0374,5.0383,5.0386,5.0389,0,0,0,0,0,0,5.0236,5.0248,5.0247,5.0268,5.0277,5.0288,5.0298,5.0297,5.0308,5.0307,5.0309,5.0312,5.0331,5.0336,5.0326,5.036,5.035,5.0352,5.0356,5.0359,5.0361,5.0359,5.0317,0,0,0,0,0,5.0239,5.0253,5.0263,5.028,5.0285,5.0291,5.0299,5.03,5.031,5.0314,5.032,5.033,5.0343,5.0351,5.0363,5.0385,5.0388,5.0395,5.0398,5.04,5.0402,5.0415,5.0419,5.038,5.038,5.038,0,0,5.0247,5.0255,5.0263,5.0281,5.0289,5.0303,5.0294,5.0309,5.0319,5.0316,5.0334,5.034,5.0351,5.0372,5.0381,5.0376,5.0413,5.0402,5.0404,5.0405,5.0417,5.0421,5.0424,5.0381,5.0381,5.0381,0,0,5.0267,5.0275,5.0291,5.0299,5.0311,5.0316,5.032,5.0331,5.0335,5.0354,5.0352,5.0364,5.0386,5.0394,5.0401,5.0428,5.0425,5.0432,5.0445,5.0457,5.046,5.0463,5.0473,5.0477,5.0434,5.0434,5.0434,0,5.0275,5.0296,5.0299,5.0314,5.0323,5.0321,5.0338,5.0345,5.0361,5.0367,5.0361,5.039,5.0397,5.0421,5.0428,5.0433,5.0438,5.043,5.046,5.0463,5.0465,5.0475,5.0478,5.0435,5.0435,5.0435,5.0434,0,5.0305,5.0319,5.0331,5.0347,5.0357,5.0372,5.0378,5.0388,5.0389,5.0394,5.0414,5.0423,5.0437,5.0443,5.0443,5.0467,5.0464,5.0459,5.0449,5.047,5.0479,5.0482,5.0436,5.0436,5.0435,5.0435,0,0,5.0328,5.0347,5.0351,5.0359,5.0373,5.0385,5.0401,5.0416,5.0425,5.0436,5.045,5.047,5.0466,5.0474,5.0476,5.0487,5.0509,5.0481,5.0482,5.0486,5.0536,5.054,5.0544,5.0507,5.0508,5.0509,5.0535,0,5.035,5.0379,5.0383,5.0409,5.0423,5.0423,5.0438,5.0448,5.0454,5.0467,5.0473,5.0487,5.0481,5.0486,5.0497,5.0504,5.0519,5.0502,5.052,5.0521,5.0518,5.0548,5.0552,5.0577,5.0539,5.054,5.054,0,5.0379,5.0393,5.042,5.0434,5.044,5.0453,5.0468,5.0481,5.0493,5.0497,5.0507,5.0508,5.0525,5.0515,5.0539,5.0528,5.0536,5.054,5.0541,5.0543,5.0531,5.0551,5.0585,5.0588,5.0545,5.0545,5.0545,0,5.0394,5.0419,5.0439,5.0446,5.0462,5.0472,5.0479,5.0491,5.0501,5.0514,5.052,5.0535,5.0543,5.0555,5.056,5.0552,5.0584,5.0574,5.0588,5.0587,5.0594,5.0593,5.0629,5.0599,5.0599,5.0599,5.0599,0,5.0419,5.0436,5.0446,5.0458,5.0478,5.0483,5.0502,5.0509,5.052,5.0534,5.0535,5.0548,5.0553,5.0567,5.0571,5.0592,5.0595,5.0598,5.0599,5.0598,5.0598,5.0603,5.0602,5.06,5.06,5.06,5.0599,0,5.0438,5.0446,5.0468,5.0483,5.0487,5.0501,5.0513,5.0525,5.0532,5.0549,5.0554,5.0563,5.058,5.0586,5.0606,5.0609,5.0633,5.0632,5.0629,5.0629,5.0642,5.0641,5.0683,5.0689,5.0654,5.0655,5.0655,0,5.0453,5.0466,5.0483,5.0493,5.0501,5.0517,5.0527,5.0533,5.0543,5.056,5.057,5.0587,5.0601,5.0628,5.0636,5.0652,5.0652,5.0666,5.0654,5.0654,5.0653,5.0652,5.0654,5.0668,5.0668,5.0668,5.0668,0,5.0479,5.0483,5.0498,5.0515,5.0527,5.054,5.0553,5.0561,5.0569,5.0581,5.0599,5.061,5.0631,5.0648,5.0665,5.0672,5.0672,5.0672,5.0676,5.0675,5.0673,5.0675,5.0635,5.0671,5.0671,5.0671,5.067,5.067,5.0498,5.051,5.0524,5.0541,5.0552,5.0564,5.0577,5.0586,5.0601,5.0619,5.0622,5.0641,5.0654,5.0677,5.0685,5.07,5.0697,5.0702,5.0704,5.0705,5.0706,5.0671,5.0703,5.0703,5.0703,5.0703,5.0703,0,5.0524,5.0534,5.055,5.0569,5.0582,5.0582,5.0596,5.0608,5.0625,5.0638,5.0652,5.0673,5.069,5.0701,5.0718,5.0728,5.0728,5.0732,5.0731,5.0733,5.0708,5.0703,5.0732,5.0732,5.0732,5.0732,5.0732,5.0732,5.054,5.0561,5.0567,5.0594,5.0604,5.0623,5.0632,5.0643,5.0654,5.0677,5.0692,5.0699,5.0711,5.073,5.0746,5.0748,5.0755,5.0759,5.0762,5.0738,5.0735,5.0732,5.0728,5.076,5.076,5.0785,5.0786,5.0786]}]]